Weather History for KJFZ - September, 2013

Change the Weather History Date:

Friday, September 6, 2013

  Actual Average (KBLF) Record (KBLF)
Temperature  
Mean Temperature 70 °F 69 °F  
Max Temperature 79 °F 78 °F 93 °F (2007)
Min Temperature 61 °F 60 °F 44 °F (1972)
Degree Days  
Heating Degree Days 0 1  
Month to date heating degree days 4  
Since 1 July heating degree days 10  
Cooling Degree Days 5 5  
Month to date cooling degree days 32  
Year to date cooling degree days 766  
Growing Degree Days 20 (Base 50)    
Moisture  
Dew Point 59 °F    
Average Humidity 72    
Maximum Humidity 94    
Minimum Humidity 45    
Precipitation  
Precipitation 0.00 in 0.10 in 2.53 in (1996)
Month to date precipitation 0.58  
Year to date precipitation 28.97  
Snow  
Snow 0.00 in - - ()
Month to date snowfall  
Since 1 July snowfall  
Since 1 September snowfall  
Snow Depth -    
Sea Level Pressure  
Sea Level Pressure 30.23 in    
Wind  
Wind Speed 1 mph (North)    
Max Wind Speed 6 mph    
Max Gust Speed -    
Visibility 10 miles    
Events      
T = Trace of Precipitation, MM = Missing Value Source: NWS Daily Summary

Daily Weather History Graph

Daily Weather History Graph

Search for Another Location

Airport or City:

Trip Planner

Search our weather history database for the weather conditions in past years. The results will help you decide how hot, cold, wet, or windy it might be!

Date:

Astronomy

Sep. 06, 2013 Rise Set
Actual Time 7:02 AM EDT 7:48 PM EDT
Civil Twilight 6:35 AM EDT 8:14 PM EDT
Nautical Twilight 6:04 AM EDT 8:45 PM EDT
Astronomical Twilight 5:32 AM EDT 9:17 PM EDT
Moon 8:10 AM EDT (9/6) 8:15 PM EDT (9/6)
Length of Visible Light 13h 38m
Length of Day
12h 45m
New Moon, 1% of the Moon is Illuminated
Sep 6
New Moon
Sep 12
First Quarter
Sep 19
Full
Sep 26
Last Quarter
Oct 4
New

Hourly Weather History & Observations

Time (EDT) Temp. Dew Point Humidity Pressure Visibility Wind Dir Wind Speed Gust Speed Precip Events Conditions
12:15 AM 66.0 °F 60.8 °F 83% 30.26 in 10.0 mi Calm Calm - N/A   Clear
12:35 AM 66.6 °F 60.8 °F 82% 30.26 in 10.0 mi Calm Calm - N/A   Clear
12:55 AM 65.5 °F 60.8 °F 85% 30.26 in 10.0 mi Calm Calm - N/A   Clear
1:15 AM 63.9 °F 61.2 °F 91% 30.26 in 10.0 mi Calm Calm - N/A   Clear
1:35 AM 64.9 °F 61.0 °F 87% 30.26 in 10.0 mi Calm Calm - N/A   Clear
1:55 AM 63.9 °F 60.8 °F 90% 30.26 in 10.0 mi Calm Calm - N/A   Clear
2:15 AM 64.4 °F 60.4 °F 87% 30.25 in 10.0 mi SSE 3.5 mph - N/A   Clear
2:35 AM 64.2 °F 60.4 °F 87% 30.25 in 10.0 mi Calm Calm - N/A   Clear
2:55 AM 64.4 °F 60.3 °F 86% 30.24 in 10.0 mi Calm Calm - N/A   Clear
3:15 AM 63.1 °F 60.4 °F 91% 30.24 in 10.0 mi Calm Calm - N/A   Clear
3:35 AM 63.3 °F 60.6 °F 91% 30.24 in 10.0 mi Calm Calm - N/A   Clear
3:55 AM 62.1 °F 59.7 °F 92% 30.24 in 10.0 mi Calm Calm - N/A   Clear
4:15 AM 62.2 °F 60.1 °F 93% 30.24 in 10.0 mi SSE 3.5 mph - N/A   Clear
4:35 AM 62.1 °F 59.9 °F 93% 30.24 in 7.0 mi Calm Calm - N/A   Clear
4:55 AM 62.6 °F 59.9 °F 91% 30.24 in 10.0 mi Calm Calm - N/A   Clear
5:15 AM 62.2 °F 60.3 °F 93% 30.25 in 7.0 mi Calm Calm - N/A   Clear
5:35 AM 61.0 °F 59.2 °F 94% 30.25 in 4.0 mi Calm Calm - N/A   Clear
5:55 AM 62.6 °F 60.1 °F 91% 30.25 in 10.0 mi Calm Calm - N/A   Clear
6:15 AM 61.9 °F 59.9 °F 93% 30.25 in 10.0 mi Calm Calm - N/A   Clear
6:35 AM 62.8 °F 60.1 °F 91% 30.25 in 10.0 mi SSE 3.5 mph - N/A   Clear
6:55 AM 62.6 °F 59.9 °F 91% 30.26 in 10.0 mi Calm Calm - N/A   Clear
7:15 AM 62.8 °F 59.9 °F 90% 30.26 in 10.0 mi Calm Calm - N/A   Clear
7:35 AM 62.6 °F 59.9 °F 91% 30.26 in 10.0 mi Calm Calm - N/A   Clear
7:55 AM 63.5 °F 60.6 °F 90% 30.26 in 10.0 mi Calm Calm - N/A   Clear
8:15 AM 64.6 °F 61.0 °F 88% 30.27 in 10.0 mi Calm Calm - N/A   Clear
8:35 AM 64.4 °F 61.3 °F 90% 30.27 in 10.0 mi Calm Calm - N/A   Clear
8:55 AM 64.9 °F 61.2 °F 88% 30.27 in 10.0 mi Calm Calm - N/A   Clear
9:15 AM 66.7 °F 62.1 °F 85% 30.27 in 10.0 mi Calm Calm - N/A   Scattered Clouds
9:35 AM 67.8 °F 62.4 °F 83% 30.27 in 10.0 mi Calm Calm - N/A   Clear
9:55 AM 70.9 °F 63.5 °F 77% 30.27 in 10.0 mi Calm Calm - N/A   Clear
10:15 AM 70.3 °F 62.8 °F 77% 30.27 in 10.0 mi Calm Calm - N/A   Clear
10:35 AM 70.9 °F 61.9 °F 73% 30.28 in 10.0 mi Calm Calm - N/A   Scattered Clouds
10:55 AM 70.7 °F 63.1 °F 77% 30.27 in 10.0 mi Calm Calm - N/A   Clear
11:15 AM 71.8 °F 60.6 °F 68% 30.28 in 10.0 mi Calm Calm - N/A   Scattered Clouds
11:35 AM 73.8 °F 59.4 °F 61% 30.27 in 10.0 mi NE 3.5 mph - N/A   Scattered Clouds
11:55 AM 72.7 °F 60.1 °F 64% 30.27 in 10.0 mi NNW 3.5 mph - N/A   Scattered Clouds
12:15 PM 74.1 °F 59.5 °F 60% 30.27 in 10.0 mi Calm Calm - N/A   Mostly Cloudy
12:35 PM 74.8 °F 59.7 °F 59% 30.26 in 10.0 mi Calm Calm - N/A   Scattered Clouds
12:55 PM 75.6 °F 59.0 °F 56% 30.26 in 10.0 mi WNW 3.5 mph - N/A   Clear
1:15 PM 75.7 °F 59.0 °F 56% 30.25 in 10.0 mi Calm Calm - N/A   Scattered Clouds
1:35 PM 76.8 °F 57.7 °F 52% 30.25 in 10.0 mi Calm Calm - N/A   Scattered Clouds
1:55 PM 77.0 °F 58.5 °F 53% 30.24 in 10.0 mi Calm Calm - N/A   Scattered Clouds
2:15 PM 77.9 °F 57.0 °F 48% 30.24 in 10.0 mi Calm Calm - N/A   Scattered Clouds
2:35 PM 76.3 °F 56.8 °F 51% 30.23 in 10.0 mi Calm Calm - N/A   Scattered Clouds
2:55 PM 78.8 °F 57.4 °F 48% 30.22 in 10.0 mi Calm Calm - N/A   Scattered Clouds
3:15 PM 79.0 °F 57.0 °F 47% 30.21 in 10.0 mi West 5.8 mph - N/A   Scattered Clouds
3:35 PM 79.0 °F 57.7 °F 48% 30.20 in 10.0 mi Calm Calm - N/A   Scattered Clouds
3:55 PM 79.0 °F 57.2 °F 47% 30.20 in 10.0 mi Calm Calm - N/A   Scattered Clouds
4:15 PM 79.3 °F 56.3 °F 45% 30.19 in 10.0 mi NW 5.8 mph - N/A   Scattered Clouds
4:35 PM 78.3 °F 57.7 °F 49% 30.19 in 10.0 mi NW 4.6 mph - N/A   Scattered Clouds
4:55 PM 78.4 °F 57.9 °F 49% 30.19 in 10.0 mi NW 4.6 mph - N/A   Scattered Clouds
5:15 PM 78.3 °F 57.4 °F 49% 30.19 in 10.0 mi Calm Calm - N/A   Clear
5:35 PM 78.3 °F 59.0 °F 51% 30.19 in 10.0 mi North 3.5 mph - N/A   Clear
5:55 PM 77.5 °F 59.2 °F 53% 30.19 in 10.0 mi NNW 5.8 mph - N/A   Scattered Clouds
6:15 PM 77.0 °F 59.0 °F 54% 30.19 in 10.0 mi NW 4.6 mph - N/A   Scattered Clouds
6:35 PM 76.6 °F 59.0 °F 54% 30.19 in 10.0 mi NNW 5.8 mph - N/A   Clear
6:55 PM 75.4 °F 59.5 °F 58% 30.19 in 10.0 mi NNW 5.8 mph - N/A   Clear
7:15 PM 74.3 °F 59.7 °F 60% 30.19 in 10.0 mi North 3.5 mph - N/A   Clear
7:35 PM 72.7 °F 59.4 °F 63% 30.19 in 10.0 mi NNE 3.5 mph - N/A   Clear
7:55 PM 71.8 °F 58.5 °F 63% 30.19 in 10.0 mi NNE 3.5 mph - N/A   Clear
8:15 PM 70.7 °F 58.5 °F 65% 30.19 in 10.0 mi NE 3.5 mph - N/A   Clear
8:35 PM 70.2 °F 57.2 °F 63% 30.19 in 10.0 mi NE 3.5 mph - N/A   Clear
8:55 PM 69.8 °F 56.7 °F 63% 30.20 in 10.0 mi Calm Calm - N/A   Clear
9:15 PM 69.6 °F 55.9 °F 62% 30.20 in 10.0 mi ENE 3.5 mph - N/A   Clear
9:35 PM 70.0 °F 55.2 °F 59% 30.20 in 10.0 mi Calm Calm - N/A   Clear
9:55 PM 67.5 °F 56.5 °F 68% 30.20 in 10.0 mi Calm Calm - N/A   Clear
10:15 PM 66.2 °F 59.4 °F 79% 30.21 in 10.0 mi NNE 3.5 mph - N/A   Clear
10:35 PM 67.1 °F 58.5 °F 74% 30.21 in 10.0 mi Calm Calm - N/A   Clear
10:55 PM 66.6 °F 56.5 °F 70% 30.21 in 10.0 mi Calm Calm - N/A   Clear
11:15 PM 66.9 °F 56.8 °F 70% 30.21 in 10.0 mi SSE 3.5 mph - N/A   Clear
11:35 PM 66.2 °F 56.5 °F 71% 30.20 in 10.0 mi Calm Calm - N/A   Clear
11:55 PM 65.5 °F 56.8 °F 74% 30.20 in 10.0 mi NNW 3.5 mph - N/A   Clear